Temp
15 15 15 15 15 14 15 15 16 16 16 16 16 16 16 15 15 15 14 14 14 14 15 15 15 15 15 14 13 13 14 12 11
15 15 15 15 15 15 15 15 16 16 15 15 16 16 15 15 14 14 14 13 14 14 15 15 15 15 15 13 10 11 11 11 12
15 15 15 15 15 14 15 15 15 15 15 15 15 15 15 14 14 14 14 13 14 14 14 14 14 14 14 12 10 11 10 11 12
16 15 15 15 15 14 15 15 15 14 14 14 15 15 14 14 14 14 14 13 13 14 14 14 14 14 14 13 10 11 10 11 12
15 15 15 14 14 14 14 14 14 14 14 14 14 14 14 14 13 14 14 14 13 14 14 14 13 13 13 12 11 10 11 11 11
14 15 15 15 14 14 14 14 14 14 13 13 14 14 14 13 13 13 14 14 13 13 13 13 13 13 12 12 12 11 11 12 12
13 13 15 14 14 14 14 13 13 13 12 14 14 13 13 14 14 13 13 13 13 13 13 13 13 12 12 12 11 12 12 12 12
14 14 14 14 14 14 13 13 13 13 13 12 13 12 13 14 14 13 13 13 13 13 13 13 13 13 12 11 11 12 12 12 11
14 14 14 14 14 14 13 13 13 13 13 13 12 12 13 14 13 13 13 13 13 13 13 13 13 13 12 11 11 12 12 11 12
13 13 13 14 13 13 13 12 13 13 13 13 13 13 13 13 13 13 13 12 13 13 12 12 13 13 12 11 11 11 12 12 11
13 13 13 12 13 13 13 13 12 12 13 13 13 13 13 13 13 13 12 12 12 13 12 12 12 13 12 12 12 12 11 11 12
12 12 12 14 12 12 13 13 12 12 13 13 13 13 13 12 12 12 11 12 12 12 12 12 12 13 12 12 13 12 12 12 11
11 12 12 13 12 12 13 12 12 12 12 13 12 12 12 12 13 12 11 12 12 13 13 12 12 12 12 12 12 12 12 12 12
10 11 11 12 12 12 12 12 12 12 12 12 13 12 12 12 12 12 12 11 12 12 12 12 11 12 11 11 12 12 11 11 12
9 10 10 11 11 11 12 12 12 12 12 12 12 12 12 12 12 12 11 11 12 12 12 12 11 11 11 10 11 11 11 11 11
7 9 11 10 10 12 11 11 12 11 12 11 12 11 11 11 12 11 11 11 11 12 11 12 11 11 10 11 11 11 11 11 11
5 6 9 9 10 10 11 11 10 11 11 11 11 10 10 11 11 11 11 11 10 10 12 11 11 12 11 11 11 11 11 10 10
3 5 6 8 9 9 11 11 10 10 11 11 11 10 10 10 11 11 11 11 10 10 9 10 11 11 10 10 10 10 11 10 10
2 3 4 6 7 9 10 10 10 10 11 10 11 11 11 11 10 10 11 11 10 10 9 10 10 10 10 9 9 10 10 10 9
-0 1 3 3 5 8 9 10 10 11 11 10 10 10 11 11 12 10 10 10 10 10 10 10 9 10 10 9 9 10 10 10 10
Height
1522 1522 1523 1524 1525 1526 1527 1528 1529 1530 1531 1532 1535 1536 1538 1540 1542 1546 1547 1548 1546 1546 1547 1547 1547 1547 1547 1546 1546 1547 1550 1553 1555
1520 1521 1522 1523 1524 1526 1527 1528 1529 1530 1531 1532 1534 1536 1538 1540 1544 1546 1546 1545 1546 1546 1547 1548 1549 1549 1548 1547 1547 1549 1551 1555 1558
1518 1519 1521 1522 1523 1525 1526 1528 1530 1530 1532 1533 1534 1536 1538 1540 1543 1544 1545 1544 1546 1547 1548 1549 1550 1550 1549 1549 1550 1551 1553 1556 1558
1516 1517 1519 1521 1522 1524 1525 1527 1530 1531 1532 1533 1534 1536 1537 1540 1542 1543 1544 1544 1545 1547 1548 1549 1550 1550 1550 1550 1552 1555 1556 1558 1559
1514 1515 1517 1519 1521 1523 1524 1526 1528 1530 1531 1533 1534 1536 1537 1539 1539 1539 1540 1542 1544 1546 1548 1549 1549 1550 1551 1552 1554 1556 1557 1559 1560
1511 1512 1514 1516 1518 1520 1522 1524 1526 1528 1529 1530 1532 1534 1536 1539 1540 1539 1539 1540 1542 1544 1547 1548 1549 1550 1552 1553 1554 1557 1559 1560 1561
1509 1510 1510 1512 1514 1516 1518 1519 1523 1526 1527 1527 1529 1531 1535 1538 1539 1539 1539 1539 1539 1543 1545 1547 1549 1550 1552 1554 1555 1557 1560 1561 1562
1504 1505 1506 1508 1510 1512 1514 1517 1520 1522 1526 1527 1526 1529 1533 1536 1538 1537 1537 1539 1541 1542 1544 1546 1548 1549 1551 1554 1557 1558 1559 1561 1562
1498 1499 1501 1503 1504 1507 1510 1513 1515 1518 1522 1525 1526 1528 1531 1533 1535 1535 1536 1538 1540 1542 1543 1546 1547 1549 1551 1554 1557 1559 1561 1561 1563
1492 1493 1495 1497 1499 1503 1504 1508 1511 1514 1517 1521 1523 1526 1529 1531 1533 1532 1534 1535 1538 1540 1542 1544 1546 1549 1550 1553 1556 1558 1560 1562 1563
1486 1488 1486 1490 1494 1497 1498 1501 1506 1509 1513 1516 1519 1523 1526 1528 1529 1531 1531 1532 1535 1538 1541 1543 1545 1548 1550 1553 1555 1557 1560 1562 1564
1479 1478 1477 1484 1488 1490 1493 1497 1501 1505 1509 1512 1515 1518 1522 1524 1526 1528 1529 1529 1532 1535 1539 1541 1545 1547 1549 1552 1555 1556 1559 1562 1564
1472 1474 1472 1474 1479 1484 1486 1491 1495 1500 1504 1508 1511 1514 1517 1520 1524 1524 1525 1527 1529 1531 1536 1540 1542 1545 1547 1550 1552 1555 1558 1561 1562
1467 1468 1469 1459 1466 1468 1478 1483 1489 1494 1499 1504 1508 1511 1514 1517 1521 1522 1522 1524 1526 1528 1532 1536 1539 1543 1546 1548 1551 1553 1556 1558 1558
1461 1463 1464 1460 1462 1455 1463 1476 1483 1489 1493 1499 1504 1507 1510 1514 1517 1520 1520 1520 1523 1526 1524 1529 1535 1540 1543 1546 1549 1551 1553 1554 1556
1457 1457 1458 1460 1469 1467 1463 1468 1476 1484 1490 1494 1500 1504 1507 1510 1513 1516 1519 1519 1520 1520 1527 1529 1532 1536 1540 1543 1545 1548 1550 1552 1554
1453 1453 1453 1456 1458 1461 1460 1466 1474 1479 1482 1486 1494 1499 1504 1505 1509 1511 1515 1517 1519 1521 1524 1526 1528 1532 1535 1539 1542 1544 1547 1548 1550
1448 1448 1448 1449 1449 1446 1454 1460 1462 1468 1473 1479 1484 1490 1493 1499 1502 1506 1510 1514 1515 1518 1519 1522 1525 1528 1531 1533 1536 1540 1542 1544 1546
1445 1443 1443 1444 1442 1448 1451 1458 1459 1463 1464 1471 1474 1481 1486 1491 1497 1500 1504 1509 1511 1513 1516 1518 1521 1524 1526 1529 1531 1534 1537 1540 1543
1441 1439 1438 1437 1440 1441 1446 1450 1453 1455 1458 1458 1464 1471 1478 1482 1486 1490 1496 1502 1506 1509 1511 1514 1517 1519 1522 1524 1526 1530 1533 1536 1540
Wind_Speed
14 14 12 12 12 12 12 10 11 12 12 11 10 10 11 16 11 10 10 9 11 11 9 6 5 4 6 5 4 5 2 15 13
16 16 15 13 14 15 14 13 13 13 12 12 11 11 12 13 7 9 9 15 14 12 9 6 3 2 7 5 7 11 18 17 17
18 18 16 15 16 16 14 16 15 14 12 11 10 10 12 13 9 11 9 13 16 15 11 6 3 4 7 7 11 14 15 19 16
17 17 15 15 16 17 17 18 16 13 12 10 8 10 11 9 12 12 15 17 18 17 11 7 2 5 6 7 17 15 18 17 13
17 17 16 16 17 17 19 20 18 14 12 11 9 11 12 9 7 9 17 17 21 17 11 5 3 3 4 7 11 12 13 18 13
20 20 19 19 19 19 21 23 20 15 13 12 11 13 15 8 8 8 8 16 22 18 11 8 5 2 5 7 12 13 16 18 14
20 20 22 19 20 19 23 25 20 16 13 16 15 16 11 13 10 10 11 12 18 19 11 9 6 5 6 12 17 19 17 14 11
27 27 23 21 21 20 23 23 22 19 13 11 14 14 13 14 13 13 14 11 11 16 14 7 7 4 8 17 17 17 15 12 16
32 30 27 26 26 27 26 24 24 19 15 14 13 13 14 14 13 16 15 14 14 17 17 9 8 6 17 19 15 16 16 14 12
30 31 32 29 28 27 28 23 21 21 18 17 15 15 15 14 13 14 14 16 17 16 20 13 11 8 18 19 18 16 15 11 7
26 37 32 31 35 30 31 29 24 21 19 19 18 17 15 15 16 14 15 14 17 21 21 17 14 11 17 19 15 18 13 11 8
18 19 41 47 41 38 30 31 24 21 20 20 19 19 17 17 16 16 12 14 13 19 22 21 19 17 18 16 14 11 9 8 7
21 21 27 44 44 43 40 35 30 25 23 22 20 19 19 18 14 16 18 16 12 17 24 25 24 20 20 18 16 13 10 11 13
23 23 31 26 53 39 40 36 29 29 26 23 22 21 19 17 17 16 18 17 11 18 26 32 27 23 21 18 14 13 9 7 12
22 21 24 16 30 32 37 28 26 30 29 27 23 23 22 20 19 17 15 16 13 18 19 31 28 28 24 16 14 12 13 6 6
23 21 20 21 22 30 30 25 25 29 30 28 26 22 22 21 20 19 17 15 15 14 18 23 23 24 17 15 14 13 14 13 11
22 20 18 25 24 25 36 37 38 37 32 32 31 20 20 25 23 21 21 20 18 19 22 20 20 22 20 20 21 18 18 17 16
21 23 20 21 23 11 25 34 40 37 34 40 29 14 13 24 30 26 23 22 22 23 22 22 24 21 20 19 21 21 20 19 19
22 20 25 24 18 26 22 32 32 35 38 42 43 28 17 17 14 30 28 25 26 28 25 23 22 19 21 21 22 20 20 22 23
24 23 22 25 24 17 21 28 36 41 41 47 48 37 26 22 22 17 29 30 29 29 27 27 25 23 22 21 23 18 19 17 28
Wind_Direction
232 230 238 233 220 198 204 200 186 181 177 174 177 181 175 154 129 178 197 181 188 176 162 135 92 31 355 290 218 215 116 119 115
234 238 242 228 213 201 206 196 182 174 176 173 171 176 174 161 177 188 209 199 197 183 171 147 130 63 26 63 143 117 129 128 117
236 238 233 219 209 204 202 190 186 179 178 179 179 186 183 173 191 196 207 220 193 185 176 169 164 68 49 100 129 126 136 139 129
231 229 224 218 211 207 197 193 196 192 189 191 192 200 192 169 206 200 215 218 197 187 182 183 157 67 56 84 128 134 134 137 143
225 222 222 221 218 216 205 202 204 196 204 208 219 207 190 163 226 213 215 210 193 187 184 177 158 80 86 120 128 146 167 151 148
226 225 227 226 224 223 215 208 207 208 215 223 224 208 197 187 207 239 211 202 189 183 171 169 198 159 135 145 143 145 140 143 142
231 230 226 224 221 222 214 206 210 218 228 227 216 208 198 202 211 227 233 208 186 180 176 184 195 171 155 160 143 142 146 151 158
222 224 221 218 212 209 207 203 209 222 204 217 222 202 194 206 211 229 233 208 209 199 190 193 177 162 171 154 161 163 161 171 171
227 222 220 216 212 204 206 208 212 210 193 206 208 197 198 199 207 231 239 214 212 206 200 189 170 158 156 156 167 172 175 160 163
235 228 223 220 211 198 211 205 210 196 197 198 195 199 199 198 201 229 247 227 218 213 202 189 175 166 164 166 173 178 188 199 200
248 234 232 227 216 202 213 197 199 201 193 193 191 195 198 202 204 219 247 223 218 216 206 192 183 179 159 163 179 196 201 197 216
263 283 230 233 233 208 206 204 196 194 194 193 194 193 199 200 218 214 227 223 225 219 211 198 195 188 171 177 196 187 197 213 229
269 252 251 225 233 218 205 203 201 187 196 193 199 196 206 199 204 230 228 236 237 211 208 207 199 192 178 172 175 196 217 239 271
267 271 264 218 216 222 210 207 206 195 195 196 203 199 203 203 204 224 238 243 242 213 197 209 194 192 186 186 193 202 207 263 295
268 259 253 263 228 236 199 206 210 210 205 198 203 205 202 202 205 209 232 251 230 197 189 187 194 193 187 193 211 224 235 266 273
272 258 252 240 256 234 219 212 222 220 222 202 200 207 210 206 208 214 212 231 242 213 205 186 184 189 205 210 211 224 243 258 253
281 273 242 221 243 232 226 217 234 224 219 202 197 194 206 209 212 215 213 216 220 225 216 226 227 232 234 235 233 233 239 251 252
293 272 269 243 222 258 225 225 219 221 216 214 195 172 204 204 212 205 215 214 219 219 226 227 233 237 237 243 243 236 234 239 233
296 285 267 246 244 224 224 239 239 225 217 216 208 206 202 184 195 219 210 212 223 227 220 225 232 237 250 232 242 231 228 219 220
300 288 274 267 256 226 217 224 232 226 220 210 206 203 200 196 190 186 205 212 217 225 229 221 221 233 248 234 226 217 210 219 217